Weather History for Salinas, CA

Change the Weather History Date:

Monday, February 11, 2013

  Actual Average Record
Temperature  
Mean Temperature 50 °F 53 °F  
Max Temperature 63 °F 63 °F 81 °F (1971)
Min Temperature 36 °F 43 °F 30 °F (1966)
Degree Days  
Heating Degree Days 15 12  
Month to date heating degree days 171 138  
Since 1 July heating degree days 1521 1616  
Cooling Degree Days 0 0  
Month to date cooling degree days 0 0  
Year to date cooling degree days 0 0  
Moisture  
Dew Point 35 °F    
Average Humidity 61    
Maximum Humidity 92    
Minimum Humidity 30    
Precipitation  
Precipitation 0.00 in 0.08 in 1.19 in (1938)
Month to date precipitation 0.20 0.99  
Year to date precipitation 1.24 3.59  
Since 1 July precipitation 7.88 7.70  
Sea Level Pressure  
Sea Level Pressure 30.19 in    
Wind  
Wind Speed 6 mph (ESE)    
Max Wind Speed 16 mph    
Max Gust Speed 18 mph    
Visibility 10 miles    
Events      
T = Trace of Precipitation, MM = Missing Value Source: NWS Daily Summary

Daily Weather History Graph

Daily Weather History Graph

Search for Another Location

Airport:

Trip Planner

Search our weather history database for the weather conditions in past years. The results will help you decide how hot, cold, wet, or windy it might be!

Date:

Astronomy

Feb. 11, 2013 Rise Set
Actual Time 6:58 AM PST 5:43 PM PST
Civil Twilight 6:31 AM PST 6:09 PM PST
Nautical Twilight 6:01 AM PST 6:40 PM PST
Astronomical Twilight 5:31 AM PST 7:10 PM PST
Moon 7:30 AM PST (2/11) 7:41 PM PST (2/11)
Length of Visible Light 11h 37m
Length of Day
10h 44m
Waxing Crescent, 3% of the Moon is Illuminated
Feb 11
Waxing Crescent
Feb 17
First Quarter
Feb 25
Full
Mar 4
Last Quarter
Mar 11
New

Hourly Weather History & Observations

Time (PST) Temp. Windchill Dew Point Humidity Pressure Visibility Wind Dir Wind Speed Gust Speed Precip Events Conditions
12:53 AM 37.0 °F 33.3 °F 34.0 °F 89% 30.11 in 10.0 mi East 4.6 mph - N/A   Clear
1:53 AM 37.0 °F 34.5 °F 35.1 °F 93% 30.12 in 10.0 mi SSE 3.5 mph - N/A   Clear
2:53 AM 37.0 °F 31.6 °F 33.1 °F 86% 30.13 in 10.0 mi SE 6.9 mph - N/A   Clear
3:53 AM 37.0 °F 31.6 °F 34.0 °F 89% 30.12 in 10.0 mi East 6.9 mph - N/A   Clear
4:53 AM 37.0 °F 31.6 °F 33.1 °F 86% 30.13 in 10.0 mi East 6.9 mph - N/A   Clear
5:53 AM 36.0 °F 27.5 °F 32.0 °F 86% 30.14 in 10.0 mi ESE 12.7 mph - N/A   Clear
6:53 AM 36.0 °F 28.0 °F 32.0 °F 86% 30.17 in 10.0 mi ESE 11.5 mph - N/A   Clear
7:53 AM 37.9 °F 30.5 °F 33.1 °F 83% 30.19 in 10.0 mi East 11.5 mph - N/A   Clear
8:53 AM 44.1 °F 39.0 °F 36.0 °F 73% 30.21 in 10.0 mi ESE 9.2 mph - N/A   Clear
9:53 AM 46.9 °F - 36.0 °F 66% 30.21 in 10.0 mi ESE 10.4 mph - N/A   Clear
10:53 AM 52.0 °F - 37.0 °F 57% 30.22 in 10.0 mi ESE 5.8 mph - N/A   Clear
11:53 AM 55.9 °F - 37.9 °F 51% 30.21 in 10.0 mi Calm Calm - N/A   Clear
12:53 PM 59.0 °F - 37.0 °F 44% 30.19 in 10.0 mi SSW 3.5 mph - N/A   Clear
1:53 PM 62.1 °F - 30.9 °F 31% 30.17 in 10.0 mi WSW 4.6 mph - N/A   Clear
2:53 PM 62.1 °F - 33.1 °F 34% 30.17 in 10.0 mi West 6.9 mph 17.3 mph N/A   Clear
3:53 PM 60.1 °F - 33.1 °F 36% 30.18 in 10.0 mi West 11.5 mph - N/A   Clear
4:53 PM 57.0 °F - 32.0 °F 39% 30.19 in 10.0 mi West 11.5 mph - N/A   Clear
5:53 PM 54.0 °F - 39.0 °F 57% 30.22 in 10.0 mi WNW 4.6 mph - N/A   Clear
6:53 PM 52.0 °F - 42.1 °F 69% 30.25 in 10.0 mi NW 4.6 mph - N/A   Clear
8:53 PM 46.9 °F - 37.9 °F 71% 30.27 in 10.0 mi Calm Calm - N/A   Clear
9:53 PM 46.0 °F 43.1 °F 37.0 °F 71% 30.27 in 10.0 mi North 5.8 mph - N/A   Clear
10:53 PM 41.0 °F - 35.1 °F 79% 30.28 in 10.0 mi Calm Calm - N/A   Clear
11:53 PM 39.9 °F - 34.0 °F 79% 30.28 in 10.0 mi Calm Calm - N/A   Clear